Vertical_Velocity
-3 -3 -2 -1 -1 -1 -2 -2 -2 -1 -1 -0 -2 -3 -3 -2 -4 -5 -5 -4 -4 -5 -6 -7 -4 -3 -1 3 4 3 4 10 13 16 15 10 5 0 -3 -6 -4 -0 4 7 7 6 4 1 0 1 2 2 2 2 1 -1 -2 -2 -2 -2 -2 -2 -2 -1 0 1 1 2 2
-4 -3 -2 -0 -0 -1 -3 -5 -4 -3 -2 -1 -1 -2 -2 -2 -3 -5 -6 -5 -4 -4 -5 -6 -4 -3 -1 3 9 9 7 5 8 12 15 11 4 -2 -6 -9 -9 -6 -1 5 8 9 7 3 1 1 2 2 4 4 4 1 0 0 1 1 -0 -1 -1 -0 -0 -0 0 1 1
-2 -3 -2 -2 -2 -3 -4 -6 -7 -5 -4 -3 -3 -2 -1 -2 -2 -4 -5 -5 -4 -4 -4 -5 -5 -4 -1 4 13 17 16 12 10 13 16 15 7 0 -5 -9 -11 -9 -5 3 8 10 8 5 2 2 2 2 3 4 3 1 0 1 3 3 2 2 2 2 1 0 -0 -0 -0
-0 -0 -1 -2 -2 -2 -2 -4 -5 -5 -4 -4 -4 -2 -1 -1 -1 -3 -4 -6 -5 -4 -4 -4 -4 -4 -3 -0 10 19 24 23 17 16 18 20 11 5 -1 -6 -12 -15 -12 -1 6 8 7 4 3 3 3 3 2 2 2 1 -0 1 2 3 3 3 4 4 3 1 0 -0 -1
-1 0 1 1 -0 -1 -1 -1 -2 -4 -4 -4 -3 -3 -2 -1 -2 -3 -5 -6 -6 -5 -4 -3 -3 -3 -4 -4 2 13 24 29 23 20 17 14 9 5 1 -4 -15 -21 -19 -5 4 6 5 3 2 2 3 3 2 1 -0 -1 -2 -1 1 2 3 4 4 3 1 0 -0 -0 -1
-3 -2 -1 0 0 -0 -1 -1 -1 -1 -2 -3 -2 -2 -1 -1 -1 -2 -3 -4 -6 -6 -4 -2 -1 -1 -1 -3 -3 6 17 28 26 22 15 7 3 0 -1 -5 -14 -19 -17 -5 2 5 5 3 2 1 0 -0 1 1 -1 -4 -5 -4 -1 1 3 4 3 2 0 -1 -1 -1 -0
-0 -1 -1 -1 -1 -1 -1 -1 -1 -1 -1 -1 -1 -1 -0 0 -0 -1 -1 -3 -5 -6 -5 -2 -0 1 1 -1 -2 2 11 25 29 27 20 8 0 -3 -5 -5 -7 -9 -9 -7 -3 -1 0 1 1 -0 -2 -4 -2 -0 -1 -4 -6 -6 -6 -4 -1 1 3 4 3 1 -1 -1 -1
1 1 1 1 0 -0 -1 -1 -1 -1 -2 -1 -0 -0 -0 -0 -0 -1 -2 -3 -3 -4 -4 -2 -1 1 2 2 0 1 7 20 32 35 29 16 6 -0 -3 -4 -4 -4 -4 -5 -6 -6 -5 -4 -3 -4 -5 -6 -5 -4 -4 -6 -6 -7 -7 -8 -6 -3 1 4 4 2 1 0 -1
-1 -0 0 0 1 0 -0 -0 0 -0 -1 -1 -0 0 0 0 -0 -1 -1 -2 -3 -3 -2 -2 -1 0 2 3 3 4 6 13 27 34 33 25 15 7 2 -0 -1 -1 -1 -3 -4 -5 -5 -4 -4 -5 -7 -8 -8 -9 -9 -9 -8 -7 -7 -8 -8 -7 -5 -3 -1 -1 0 0 0
-2 -2 -2 -2 -2 -1 -0 -0 0 1 0 -1 -1 0 1 1 1 1 0 -1 -2 -2 -1 -1 -0 0 1 2 3 4 6 10 20 26 27 23 17 11 6 4 3 2 1 -0 -1 -2 -2 -1 -2 -4 -6 -7 -8 -9 -8 -7 -7 -8 -9 -10 -9 -8 -7 -6 -5 -3 -1 0 0
-2 -2 -2 -2 -2 -2 -1 -1 -1 -1 -0 -1 -1 -1 -0 -0 -0 -0 -0 -0 -1 -2 -2 0 2 2 1 1 2 3 5 7 15 20 21 16 14 12 9 6 5 4 2 1 -0 -0 1 5 2 -0 -2 -4 -5 -6 -6 -6 -7 -10 -12 -13 -11 -9 -6 -4 -2 0 2 2 1
-2 -2 -2 -1 -1 -1 -2 -2 -2 -2 -2 -1 -1 -1 -1 -1 -1 -1 -2 -1 -1 -1 -1 1 3 2 1 1 2 2 4 5 12 18 19 14 12 11 10 9 8 6 4 1 -0 1 3 6 4 2 1 -1 -2 -4 -5 -7 -9 -11 -12 -13 -10 -7 -4 -1 1 3 4 3 2
-1 -2 -2 -2 -1 -2 -2 -2 -2 -2 -2 -1 -1 -1 -2 -2 -2 -2 -2 -2 -1 -1 -0 -0 2 2 2 1 2 3 4 5 10 14 17 16 14 13 12 10 8 7 4 2 1 2 3 3 2 2 1 0 -2 -4 -7 -9 -10 -11 -11 -10 -8 -5 -3 -1 0 1 1 1 -0
-1 -2 -2 -2 -2 -2 -2 -2 -2 -2 -1 -1 -1 -1 -2 -3 -2 -2 -2 -2 -0 1 1 -1 -0 1 2 1 2 4 6 7 8 10 12 14 14 13 11 7 5 4 4 3 3 3 3 2 1 -0 -0 -1 -4 -6 -8 -9 -9 -9 -8 -7 -5 -4 -2 -2 -2 -2 -2 -2 -3
-2 -2 -2 -2 -2 -2 -2 -2 -2 -2 -2 -2 -2 -1 -2 -3 -2 -2 -2 -2 -0 1 2 0 -2 -1 -0 1 1 4 6 7 7 7 7 8 11 11 8 3 1 1 1 2 2 2 2 1 -0 -1 -2 -3 -6 -8 -9 -9 -8 -8 -6 -5 -4 -2 -2 -2 -3 -4 -4 -4 -4
-3 -2 -2 -2 -2 -2 -1 -1 -1 -2 -2 -2 -1 -1 -1 -2 -2 -2 -1 -2 -1 1 2 2 0 -1 -2 -0 0 2 4 4 3 2 2 2 6 8 6 1 -1 -2 -1 -0 1 1 1 -1 -1 -1 -1 -3 -6 -8 -8 -8 -7 -6 -5 -4 -3 -2 -2 -3 -4 -4 -4 -4 -3
-3 -2 -2 -2 -2 -1 -1 -0 -0 -1 -1 -0 0 0 -0 -1 -2 -2 -1 -1 -1 -0 1 2 4 3 2 1 1 1 2 2 0 -1 -2 -2 3 5 4 0 -2 -3 -3 -2 -1 -0 0 0 0 0 -0 -3 -5 -7 -7 -7 -6 -5 -4 -4 -4 -3 -3 -3 -3 -3 -2 -1 -1
-3 -2 -2 -2 -2 -1 -1 -1 -0 -0 0 1 1 1 0 -0 -1 -1 -1 0 -0 -0 -0 1 4 6 8 8 7 6 6 5 4 3 2 3 5 6 6 2 0 -1 -2 -2 -1 -0 0 1 1 0 -1 -3 -5 -6 -6 -6 -4 -4 -4 -4 -3 -3 -3 -3 -2 -1 -0 0 -0
-2 -3 -3 -2 -2 -2 -1 -1 -1 -1 0 2 3 2 1 0 0 -0 -1 -0 -0 0 0 0 1 4 8 11 13 15 17 17 16 15 15 14 14 13 13 11 8 6 5 5 4 4 3 2 1 0 -0 -2 -4 -5 -5 -4 -3 -3 -3 -2 -2 -2 -2 -2 -1 -0 1 1 1
-2 -2 -2 -2 -2 -1 -1 -1 -1 -0 1 3 3 2 1 1 1 1 0 -0 0 1 1 2 1 2 3 6 9 15 20 25 24 23 22 22 22 22 21 21 18 15 13 12 11 10 9 6 4 3 1 -1 -3 -4 -4 -3 -2 -2 -2 -1 -1 -0 0 0 0 1 2 2 2
-1 -1 -1 -1 -1 -0 -0 0 -0 0 2 4 4 3 2 2 2 2 2 1 1 1 2 3 3 2 2 2 4 7 10 13 15 15 16 17 18 20 20 20 18 16 14 12 13 13 12 10 8 7 4 1 -1 -2 -2 -1 -1 -1 -0 1 2 2 2 2 1 2 2 2 2
-1 -1 -1 -1 -0 0 1 1 0 1 2 4 4 3 2 2 3 3 3 3 2 2 2 3 4 4 3 3 3 3 2 1 3 5 6 8 8 9 10 11 11 10 8 8 8 9 9 10 10 10 8 5 3 2 2 2 2 2 2 3 3 3 2 1 1 0 1 1 1
-0 0 -0 -0 -0 0 1 1 1 1 1 2 2 2 2 3 3 4 4 4 3 2 2 3 3 4 4 5 6 5 3 3 4 4 5 5 5 5 6 7 7 6 5 4 4 5 7 9 11 13 13 11 8 6 5 5 5 5 4 4 3 2 1 -0 -0 -0 1 1 1
1 1 1 -0 -0 -0 1 1 -0 -1 -0 1 2 2 2 3 3 3 4 5 5 5 4 4 5 5 6 7 8 8 8 8 9 9 10 10 10 10 10 11 9 8 6 6 7 8 10 11 13 15 16 14 10 7 6 5 5 5 4 4 2 1 0 -0 -0 0 1 2 2
1 2 2 -0 -1 -0 1 1 -0 -0 0 2 3 3 3 3 4 4 5 6 6 6 6 6 6 6 6 5 5 5 6 7 8 9 10 11 11 10 9 7 6 5 5 7 9 11 11 12 13 13 14 12 9 6 4 4 4 3 3 2 1 1 1 1 1 1 2 2 2
1 2 2 0 0 0 1 0 1 1 2 2 2 2 3 4 5 5 6 5 6 6 6 5 5 5 4 3 2 1 1 2 4 7 9 10 10 8 5 2 1 0 1 3 4 6 7 8 9 10 10 8 6 4 3 2 2 1 1 0 1 1 1 1 1 1 1 2 2
1 2 2 0 0 1 1 1 1 1 1 1 0 2 3 5 5 5 5 5 6 6 5 2 3 3 3 2 1 -0 -1 -1 0 2 6 9 11 10 8 6 6 5 4 2 1 1 2 4 5 6 5 4 2 1 -0 -0 -0 -0 -0 -0 0 1 1 1 1 1 1 1 2
-0 1 1 0 0 0 1 0 -0 -0 1 1 1 2 4 6 5 4 4 5 6 6 4 2 3 3 3 2 2 1 0 -1 -1 -1 -0 1 3 5 7 10 15 19 19 14 7 3 1 1 2 3 3 2 1 1 1 1 0 0 -0 -0 -0 -0 -0 -0 -0 -0 0 1 1
-1 -0 0 -0 -0 -0 -1 -2 -1 -0 1 3 3 2 2 6 6 4 3 2 2 3 4 6 6 5 4 4 6 6 5 3 2 1 -1 -3 -4 -3 -2 1 5 11 15 16 12 8 4 1 1 2 2 2 2 2 1 1 -0 -0 -0 -0 -0 -1 -1 -1 -1 -1 -1 -0 0
-1 -1 -1 -1 -1 -1 -1 -1 -1 0 2 4 3 1 0 4 5 5 3 1 -0 1 4 8 7 5 4 4 6 7 8 7 7 6 4 1 -1 -2 -2 -2 -2 0 2 4 6 6 5 2 1 0 -0 -1 -2 -2 -3 -3 -3 -2 -1 -0 0 0 0 -0 -0 -1 -1 -1 -1
-2 -2 -2 -2 -2 -2 -2 -1 -0 0 1 2 2 1 -0 1 5 6 5 4 3 2 3 5 4 3 3 3 3 4 5 6 5 4 3 2 2 2 1 -0 -2 -3 -3 -2 -1 1 3 4 1 -1 -3 -4 -5 -5 -5 -4 -3 -2 -0 0 1 1 1 1 0 -0 -1 -1 -1
-2 -2 -1 -2 -2 -2 -2 -1 -1 -0 -0 1 2 1 -0 0 6 8 8 6 4 3 2 1 -0 -1 -1 0 0 0 0 -0 -1 -2 -2 -2 -2 -0 0 -0 -3 -3 -3 -2 -3 -2 0 3 2 -0 -3 -4 -4 -4 -3 -2 -1 -1 -0 0 1 1 1 1 1 0 -0 -0 -0
-2 -1 -1 -1 -2 -2 -2 -2 -1 -1 -1 -1 0 1 1 1 3 6 8 7 5 3 2 0 -1 -2 -3 -4 -3 -3 -2 -2 -3 -3 -4 -4 -3 -3 -2 -2 -4 -5 -4 -3 -3 -2 -1 1 2 1 -0 -2 -2 -2 -2 -2 -2 -2 -1 -1 -0 -0 -0 0 0 0 -0 0 0
-2 -2 -1 -1 -1 -1 -2 -2 -2 -1 -1 -1 -1 0 1 1 0 3 7 11 7 4 2 1 0 -1 -1 -2 -3 -4 -4 -5 -5 -5 -6 -6 -5 -5 -5 -5 -5 -6 -6 -7 -5 -3 -1 2 2 1 -0 -1 -0 0 -0 -1 -1 -2 -2 -2 -2 -2 -2 -2 -1 -1 -0 0 1
-2 -2 -2 -1 -0 -1 -1 -2 -2 -1 -1 -1 -2 -1 -0 0 1 2 5 11 12 9 5 2 1 1 0 -0 -1 -2 -4 -5 -5 -6 -6 -7 -8 -8 -8 -8 -8 -7 -8 -8 -6 -3 1 5 3 1 -2 -1 0 1 1 0 -0 -1 -1 -2 -4 -4 -4 -4 -3 -2 -1 0 1
-1 -1 -1 -1 -0 -0 -1 -1 -1 -1 -0 -0 -2 -2 -2 -1 -0 1 2 4 8 11 11 7 4 2 2 1 1 -0 -1 -2 -3 -4 -5 -6 -8 -9 -9 -8 -8 -7 -7 -6 -4 -1 3 8 4 -0 -3 -2 -1 -0 0 0 -0 -1 -1 -2 -4 -4 -5 -4 -4 -2 -1 0 1
0 -0 -0 -1 -1 -0 -0 -1 -1 -1 -1 -0 -0 -1 -2 -2 -1 -1 -1 -2 -0 7 13 16 9 5 3 3 2 1 0 -0 -1 -2 -3 -4 -6 -6 -6 -5 -5 -4 -3 -1 1 4 7 11 4 -1 -4 -3 -2 -0 0 1 0 -1 -1 -2 -3 -4 -4 -4 -3 -2 0 2 2
0 0 -0 -0 -0 -0 -0 -0 -1 -1 -1 -0 1 1 1 -0 -1 -1 -2 -2 -3 1 9 19 14 8 4 4 2 2 1 0 -0 -0 -1 -1 -2 -2 -2 -2 -1 -0 0 2 4 9 12 11 2 -2 -3 -3 -2 -1 0 1 1 1 -0 -1 -2 -2 -2 -4 -3 1 4 5 4
1 0 0 0 -0 -0 -0 -1 -0 -0 -0 -0 0 1 2 1 1 0 0 -0 -1 -0 4 13 14 10 5 3 2 1 0 0 0 1 1 1 0 -0 -1 -1 -0 0 1 2 7 13 15 7 1 -1 -1 -1 -1 -1 -0 1 2 2 1 -0 -0 -1 -1 -3 -2 1 5 4 1
1 1 1 1 0 -0 -0 -1 -0 0 0 -0 -0 0 2 3 3 3 2 1 1 0 1 5 9 8 6 3 1 -0 -0 -0 -0 0 0 0 -0 -1 -3 -4 -3 -2 -1 1 12 17 14 2 0 -0 -0 -2 -2 -2 -2 -1 0 1 1 1 -0 -0 -1 -1 -2 -0 1 1 -2
1 0 0 1 1 0 -0 -1 -1 -0 -0 -0 -0 0 2 3 4 3 3 2 2 2 2 4 7 7 6 4 2 1 -0 -0 0 0 -0 -1 -2 -3 -5 -6 -6 -4 -2 0 15 20 16 3 -0 -2 -2 -3 -3 -4 -4 -3 -1 0 1 1 0 -0 -1 -1 -2 -2 -2 -1 -2
Height
1474 1472 1471 1469 1468 1466 1464 1462 1461 1459 1458 1456 1454 1452 1451 1449 1447 1445 1444 1443 1441 1440 1439 1438 1437 1436 1436 1437 1438 1437 1437 1437 1434 1431 1429 1429 1429 1429 1430 1432 1434 1436 1437 1438 1438 1438 1439 1439 1440 1440 1441 1441 1442 1442 1443 1444 1444 1445 1445 1446 1446 1447 1447 1448 1448 1448 1448 1449 1449
1472 1471 1469 1468 1466 1464 1462 1460 1459 1457 1455 1454 1452 1450 1449 1447 1445 1444 1442 1440 1439 1438 1437 1436 1435 1434 1434 1435 1436 1436 1435 1434 1433 1430 1427 1426 1426 1427 1428 1429 1431 1434 1435 1436 1437 1437 1437 1437 1438 1439 1439 1440 1440 1441 1441 1442 1443 1444 1444 1445 1445 1446 1446 1446 1447 1447 1447 1447 1447
1470 1469 1467 1466 1464 1462 1460 1458 1456 1454 1453 1451 1449 1448 1446 1445 1443 1441 1439 1438 1436 1435 1435 1434 1433 1432 1432 1432 1433 1434 1433 1432 1430 1428 1425 1424 1424 1424 1425 1427 1429 1431 1433 1435 1435 1435 1435 1435 1436 1437 1438 1438 1439 1439 1440 1440 1441 1442 1443 1443 1444 1444 1445 1445 1445 1445 1445 1446 1446
1468 1467 1465 1463 1461 1460 1458 1456 1454 1452 1450 1448 1447 1445 1444 1442 1441 1439 1437 1435 1434 1433 1432 1432 1431 1430 1429 1429 1429 1431 1431 1429 1427 1426 1424 1423 1422 1422 1424 1425 1427 1429 1432 1433 1434 1433 1433 1433 1434 1435 1436 1437 1437 1438 1439 1439 1440 1441 1442 1442 1443 1443 1443 1443 1444 1444 1444 1444 1445
1466 1464 1463 1461 1459 1457 1455 1454 1451 1449 1448 1446 1444 1442 1441 1439 1438 1436 1434 1433 1431 1430 1429 1429 1429 1428 1427 1426 1426 1428 1429 1428 1425 1423 1422 1422 1421 1421 1422 1423 1425 1427 1430 1432 1432 1432 1432 1432 1432 1433 1434 1435 1436 1436 1437 1438 1439 1439 1440 1441 1442 1442 1442 1442 1442 1442 1443 1443 1444
1464 1462 1460 1459 1457 1455 1453 1451 1449 1447 1445 1443 1441 1440 1438 1437 1435 1434 1432 1430 1428 1427 1426 1426 1425 1425 1424 1424 1424 1424 1426 1426 1425 1423 1422 1421 1420 1420 1421 1421 1423 1425 1428 1430 1430 1430 1430 1430 1431 1431 1432 1433 1434 1434 1435 1436 1437 1438 1439 1440 1440 1440 1441 1441 1441 1441 1441 1442 1442
1462 1460 1458 1456 1454 1453 1450 1449 1447 1445 1443 1441 1439 1437 1436 1434 1432 1431 1429 1427 1426 1424 1423 1423 1423 1423 1423 1422 1422 1422 1423 1424 1424 1422 1421 1419 1419 1419 1419 1420 1421 1423 1425 1427 1428 1428 1428 1429 1429 1429 1430 1431 1432 1433 1433 1434 1436 1437 1438 1439 1439 1439 1440 1440 1439 1440 1440 1440 1440
1460 1458 1456 1454 1452 1450 1448 1446 1444 1443 1440 1439 1437 1435 1433 1431 1429 1428 1426 1425 1423 1422 1421 1420 1420 1420 1420 1420 1419 1419 1420 1421 1422 1421 1419 1417 1416 1417 1418 1419 1420 1421 1422 1424 1425 1425 1426 1427 1427 1428 1429 1429 1430 1431 1432 1433 1434 1435 1436 1437 1438 1438 1438 1438 1438 1439 1439 1439 1439
1458 1456 1454 1452 1450 1448 1446 1444 1443 1441 1439 1436 1434 1433 1431 1429 1427 1425 1424 1422 1421 1419 1419 1418 1417 1417 1418 1418 1417 1417 1417 1418 1419 1419 1418 1417 1415 1415 1416 1417 1418 1419 1420 1421 1422 1423 1424 1424 1425 1426 1426 1427 1428 1429 1430 1431 1432 1433 1434 1435 1436 1436 1436 1437 1437 1438 1438 1438 1438
1456 1454 1452 1450 1448 1446 1444 1443 1441 1439 1437 1434 1433 1431 1429 1427 1425 1424 1422 1420 1419 1417 1416 1415 1415 1414 1415 1415 1415 1415 1415 1415 1416 1416 1416 1415 1414 1414 1414 1415 1416 1417 1417 1418 1419 1420 1421 1422 1423 1423 1424 1424 1426 1427 1428 1429 1430 1431 1432 1433 1434 1434 1435 1435 1436 1436 1436 1436 1436
1454 1452 1450 1449 1447 1445 1443 1441 1439 1437 1435 1433 1431 1429 1427 1425 1423 1421 1420 1418 1417 1415 1414 1413 1413 1412 1412 1413 1413 1413 1413 1413 1414 1414 1414 1413 1413 1413 1413 1413 1414 1414 1415 1416 1417 1418 1419 1420 1420 1420 1420 1421 1423 1424 1426 1427 1428 1429 1429 1430 1431 1432 1433 1434 1434 1434 1434 1434 1434
1454 1452 1450 1448 1446 1444 1442 1440 1438 1436 1434 1432 1429 1427 1425 1423 1421 1419 1418 1416 1414 1413 1412 1411 1410 1410 1410 1410 1411 1411 1411 1412 1412 1412 1412 1411 1412 1412 1412 1412 1412 1413 1413 1414 1415 1416 1417 1417 1417 1417 1418 1419 1419 1421 1423 1424 1425 1427 1428 1429 1430 1431 1431 1432 1433 1433 1432 1432 1432
1453 1451 1449 1447 1445 1443 1441 1439 1437 1435 1433 1430 1428 1426 1424 1421 1419 1418 1416 1414 1413 1411 1410 1409 1408 1408 1408 1408 1409 1409 1410 1410 1411 1411 1411 1410 1410 1410 1410 1410 1410 1411 1411 1412 1413 1414 1414 1415 1415 1415 1416 1416 1417 1419 1420 1422 1424 1425 1426 1427 1429 1429 1429 1430 1430 1430 1430 1430 1430
1452 1450 1449 1447 1444 1443 1440 1438 1436 1434 1432 1429 1427 1424 1422 1420 1418 1416 1414 1412 1411 1410 1408 1407 1406 1406 1406 1406 1407 1408 1409 1409 1409 1409 1409 1409 1409 1409 1409 1409 1409 1409 1410 1410 1411 1412 1412 1413 1413 1414 1414 1414 1415 1417 1419 1420 1422 1423 1425 1426 1427 1427 1427 1428 1428 1428 1428 1429 1429
1452 1450 1448 1446 1444 1442 1440 1438 1436 1433 1431 1428 1426 1423 1421 1419 1416 1414 1413 1411 1409 1408 1407 1406 1404 1404 1404 1404 1405 1406 1407 1408 1408 1408 1408 1408 1409 1409 1408 1408 1408 1409 1409 1409 1409 1410 1410 1411 1411 1412 1412 1413 1414 1415 1417 1419 1420 1422 1423 1424 1425 1425 1425 1425 1426 1426 1426 1427 1427
1452 1450 1448 1446 1444 1442 1440 1438 1435 1433 1430 1428 1425 1423 1420 1418 1415 1414 1412 1410 1409 1407 1406 1405 1403 1402 1402 1403 1404 1405 1406 1406 1406 1407 1407 1407 1408 1408 1407 1407 1407 1408 1408 1408 1409 1409 1409 1409 1409 1410 1411 1411 1412 1414 1415 1417 1419 1420 1421 1422 1423 1423 1423 1424 1424 1424 1425 1425 1426
1451 1449 1448 1446 1444 1442 1440 1438 1435 1433 1430 1427 1425 1422 1419 1417 1414 1413 1411 1409 1408 1406 1405 1404 1403 1401 1401 1401 1402 1403 1404 1404 1405 1405 1406 1406 1407 1407 1406 1406 1406 1406 1407 1407 1407 1407 1407 1408 1408 1409 1409 1410 1411 1413 1414 1416 1417 1419 1419 1420 1421 1421 1422 1422 1423 1424 1424 1424 1424
1451 1449 1448 1446 1444 1442 1440 1438 1435 1433 1430 1427 1424 1422 1419 1416 1414 1412 1410 1409 1407 1406 1405 1404 1403 1401 1401 1400 1401 1402 1402 1403 1404 1404 1404 1405 1405 1406 1405 1405 1405 1405 1405 1406 1406 1406 1406 1406 1407 1407 1407 1408 1409 1411 1413 1414 1416 1417 1418 1418 1419 1419 1420 1421 1422 1422 1423 1423 1423
1451 1449 1448 1446 1444 1442 1439 1437 1435 1432 1430 1427 1424 1422 1419 1416 1414 1411 1409 1408 1406 1405 1404 1404 1403 1402 1401 1400 1400 1401 1401 1402 1402 1403 1403 1403 1404 1404 1404 1404 1403 1403 1404 1404 1404 1404 1404 1404 1405 1405 1406 1407 1408 1410 1412 1413 1414 1415 1416 1417 1418 1419 1419 1420 1421 1421 1421 1421 1421
1452 1449 1448 1446 1444 1442 1439 1437 1435 1432 1430 1427 1424 1421 1419 1416 1414 1411 1409 1408 1406 1405 1404 1404 1403 1402 1401 1400 1400 1400 1400 1400 1400 1400 1400 1401 1401 1402 1402 1402 1402 1402 1402 1402 1403 1403 1403 1403 1403 1403 1404 1405 1407 1408 1410 1411 1413 1414 1415 1416 1417 1417 1418 1419 1419 1419 1419 1419 1419
1452 1450 1448 1446 1444 1442 1440 1437 1435 1433 1430 1428 1425 1422 1419 1416 1414 1412 1410 1408 1407 1405 1404 1404 1403 1402 1402 1401 1401 1400 1400 1399 1399 1399 1399 1399 1399 1400 1400 1400 1400 1400 1400 1401 1402 1402 1402 1402 1402 1402 1402 1403 1405 1407 1409 1410 1411 1413 1414 1415 1416 1416 1417 1417 1418 1418 1418 1418 1418
1452 1450 1449 1446 1444 1442 1440 1438 1435 1433 1430 1428 1425 1423 1420 1417 1414 1412 1410 1409 1407 1406 1405 1404 1403 1402 1402 1401 1401 1400 1400 1399 1399 1399 1399 1399 1399 1399 1400 1400 1400 1400 1400 1401 1401 1402 1402 1402 1402 1401 1402 1402 1404 1406 1407 1409 1410 1412 1413 1414 1414 1415 1415 1416 1416 1417 1417 1417 1417
1452 1450 1449 1447 1444 1443 1440 1438 1436 1433 1431 1428 1426 1423 1421 1418 1416 1414 1412 1410 1408 1407 1405 1404 1404 1403 1402 1402 1401 1400 1400 1400 1400 1400 1400 1400 1400 1400 1400 1400 1400 1400 1401 1402 1402 1402 1403 1403 1402 1402 1402 1402 1403 1405 1407 1408 1410 1411 1412 1412 1413 1414 1414 1415 1415 1416 1416 1416 1416
1453 1451 1449 1447 1444 1443 1440 1438 1436 1434 1431 1429 1427 1424 1422 1419 1417 1415 1413 1411 1409 1408 1407 1405 1405 1404 1403 1403 1402 1401 1401 1401 1401 1401 1401 1401 1401 1401 1401 1401 1401 1402 1402 1403 1403 1404 1404 1403 1403 1403 1402 1402 1403 1404 1406 1407 1409 1409 1410 1411 1412 1413 1413 1414 1414 1415 1415 1415 1415
1453 1451 1449 1447 1445 1443 1440 1439 1436 1434 1432 1430 1428 1425 1423 1421 1419 1417 1414 1413 1411 1409 1408 1407 1406 1405 1404 1404 1403 1403 1402 1402 1402 1402 1403 1403 1403 1403 1402 1402 1403 1403 1404 1404 1404 1404 1404 1404 1404 1403 1402 1402 1403 1404 1405 1407 1408 1409 1409 1410 1411 1412 1413 1414 1414 1414 1414 1414 1414
1453 1451 1449 1447 1445 1443 1441 1439 1437 1435 1433 1431 1429 1426 1424 1423 1421 1419 1417 1415 1413 1411 1410 1409 1408 1407 1406 1405 1405 1404 1404 1404 1404 1404 1404 1404 1404 1404 1404 1404 1404 1405 1405 1405 1405 1405 1405 1405 1404 1404 1403 1403 1404 1404 1405 1407 1408 1409 1409 1410 1411 1412 1413 1413 1413 1414 1414 1414 1414
1453 1451 1449 1447 1445 1443 1441 1439 1438 1436 1434 1432 1429 1427 1426 1424 1423 1421 1419 1417 1415 1414 1412 1411 1410 1409 1409 1408 1407 1406 1406 1405 1405 1405 1405 1405 1406 1406 1406 1407 1407 1408 1408 1408 1407 1406 1406 1405 1405 1404 1404 1404 1404 1405 1406 1407 1408 1409 1410 1411 1411 1412 1412 1412 1413 1413 1413 1413 1413
1453 1451 1449 1447 1445 1444 1442 1440 1438 1436 1435 1433 1431 1429 1427 1426 1424 1423 1421 1420 1418 1416 1414 1413 1412 1411 1410 1409 1409 1408 1408 1407 1406 1406 1406 1406 1406 1407 1407 1408 1409 1410 1411 1410 1409 1408 1407 1406 1406 1405 1405 1405 1405 1406 1407 1408 1409 1409 1410 1411 1411 1412 1412 1412 1412 1412 1412 1412 1412
1453 1451 1449 1447 1446 1444 1442 1440 1439 1437 1436 1434 1432 1430 1428 1427 1425 1424 1423 1421 1420 1419 1417 1416 1414 1413 1412 1411 1410 1409 1409 1408 1408 1407 1407 1407 1407 1407 1408 1409 1410 1411 1411 1411 1411 1410 1409 1408 1407 1406 1406 1406 1406 1407 1408 1408 1409 1410 1410 1411 1411 1411 1411 1411 1411 1411 1411 1411 1411
1453 1452 1450 1448 1446 1444 1443 1441 1439 1438 1436 1435 1433 1431 1429 1428 1427 1425 1424 1423 1421 1420 1419 1418 1417 1415 1414 1413 1412 1411 1410 1410 1409 1409 1409 1408 1408 1408 1409 1409 1410 1411 1411 1411 1411 1411 1410 1409 1408 1408 1407 1407 1407 1408 1408 1409 1409 1410 1410 1410 1410 1410 1410 1410 1410 1410 1410 1410 1410
1454 1452 1450 1448 1446 1444 1443 1441 1440 1438 1437 1435 1434 1432 1430 1429 1428 1427 1425 1424 1423 1422 1421 1420 1419 1418 1417 1416 1414 1414 1413 1412 1411 1411 1410 1410 1410 1410 1410 1410 1411 1411 1412 1412 1412 1411 1411 1411 1410 1409 1408 1408 1408 1409 1409 1409 1409 1409 1409 1409 1409 1409 1409 1409 1409 1409 1409 1409 1409
1454 1452 1450 1449 1447 1445 1443 1442 1440 1439 1437 1435 1434 1433 1431 1430 1429 1428 1427 1425 1424 1423 1422 1421 1420 1419 1418 1417 1417 1416 1415 1414 1414 1413 1413 1413 1413 1413 1412 1412 1412 1412 1413 1413 1412 1412 1412 1412 1411 1410 1409 1409 1409 1409 1409 1409 1409 1409 1409 1409 1409 1408 1408 1408 1408 1408 1408 1408 1408
1454 1452 1450 1449 1447 1445 1443 1442 1440 1439 1437 1436 1434 1434 1432 1431 1430 1429 1428 1426 1425 1424 1423 1421 1420 1420 1419 1418 1418 1417 1416 1416 1415 1415 1414 1414 1414 1414 1413 1413 1413 1413 1413 1414 1413 1413 1413 1412 1412 1411 1410 1410 1409 1409 1409 1409 1409 1409 1409 1408 1408 1408 1408 1408 1408 1408 1408 1408 1408
1454 1452 1450 1449 1447 1445 1443 1442 1440 1439 1437 1436 1434 1434 1433 1432 1430 1429 1429 1428 1426 1425 1424 1422 1421 1420 1419 1419 1418 1417 1417 1416 1416 1416 1415 1415 1414 1414 1414 1413 1413 1413 1413 1414 1414 1414 1413 1413 1412 1411 1411 1410 1410 1409 1409 1409 1409 1408 1408 1408 1408 1408 1408 1408 1408 1407 1407 1407 1407
1454 1452 1450 1449 1447 1445 1443 1441 1440 1439 1438 1436 1435 1434 1433 1432 1431 1430 1429 1429 1428 1426 1425 1423 1422 1421 1420 1419 1419 1418 1417 1417 1416 1416 1415 1415 1414 1414 1414 1413 1413 1413 1413 1413 1413 1413 1413 1413 1412 1411 1411 1410 1410 1410 1409 1409 1409 1408 1408 1407 1407 1407 1407 1408 1408 1408 1407 1407 1407
1454 1452 1450 1449 1447 1445 1443 1441 1440 1439 1438 1436 1435 1434 1433 1432 1431 1430 1429 1429 1428 1427 1426 1424 1423 1422 1421 1420 1419 1418 1418 1417 1416 1416 1415 1415 1414 1414 1414 1413 1413 1413 1413 1413 1413 1413 1413 1412 1411 1410 1410 1410 1410 1410 1409 1409 1409 1408 1408 1408 1407 1407 1408 1408 1408 1408 1408 1408 1408
1454 1453 1451 1449 1447 1445 1444 1442 1440 1439 1438 1437 1435 1434 1434 1433 1432 1431 1430 1429 1428 1427 1427 1426 1424 1423 1422 1421 1420 1419 1419 1418 1417 1416 1416 1415 1415 1414 1414 1414 1413 1413 1413 1413 1413 1413 1412 1411 1410 1410 1410 1410 1410 1410 1410 1409 1409 1409 1408 1408 1408 1408 1408 1408 1408 1408 1408 1408 1408
1455 1453 1451 1449 1448 1446 1444 1442 1441 1439 1438 1437 1436 1435 1434 1433 1432 1431 1430 1429 1428 1428 1427 1427 1425 1424 1423 1422 1421 1420 1419 1419 1418 1417 1417 1416 1415 1415 1414 1414 1414 1413 1413 1413 1413 1413 1412 1411 1410 1409 1409 1409 1410 1410 1410 1410 1410 1409 1409 1409 1409 1409 1409 1409 1409 1409 1409 1409 1409
1455 1454 1452 1450 1448 1446 1445 1443 1441 1440 1439 1438 1436 1435 1434 1434 1433 1432 1431 1430 1429 1428 1428 1427 1426 1425 1424 1423 1422 1421 1420 1419 1419 1418 1417 1416 1416 1415 1415 1414 1414 1413 1413 1413 1413 1413 1411 1410 1409 1409 1409 1409 1410 1410 1410 1410 1410 1410 1410 1409 1409 1409 1409 1409 1409 1409 1409 1408 1408
1456 1454 1452 1450 1449 1447 1445 1444 1442 1441 1439 1438 1437 1436 1435 1434 1433 1432 1431 1430 1429 1429 1428 1428 1427 1426 1424 1424 1422 1421 1420 1420 1419 1418 1417 1417 1416 1416 1415 1414 1414 1414 1413 1413 1414 1413 1411 1410 1410 1410 1410 1410 1410 1410 1410 1410 1410 1410 1410 1410 1409 1409 1409 1409 1409 1409 1409 1408 1408
1456 1454 1453 1451 1449 1448 1446 1444 1443 1441 1440 1439 1438 1436 1435 1434 1433 1432 1431 1430 1429 1429 1428 1428 1427 1426 1425 1424 1423 1422 1421 1420 1419 1418 1418 1417 1417 1416 1415 1415 1414 1414 1414 1413 1414 1413 1412 1411 1410 1410 1410 1410 1410 1410 1410 1410 1410 1410 1410 1410 1409 1409 1409 1409 1409 1409 1409 1409 1409